RH
2 2 2 2 2 2 2 2 2 2 2 2 2 2 3 3 2 2 2 2 2 2 2 2 1 1 1 2 3 3 4 3 3 3 2 2 2 2 2 5 9 11 23 40 54 66 78 87 85 86 84 83 84 74 69 60 54 61 64 65 64 61 60 60 63 60 55 46 38 36 31 22 9 3 4 4 6 4 4 7 8 10 11 11 11 10 10 15
3 3 3 2 2 2 2 2 2 2 2 2 2 2 2 2 3 2 2 2 2 2 2 2 1 1 1 2 2 3 3 3 3 3 2 2 2 2 2 5 9 12 25 41 54 69 80 82 82 87 86 83 81 72 68 58 51 58 61 60 59 58 56 57 60 55 47 41 34 30 29 25 13 5 5 4 5 3 3 5 6 7 9 10 13 11 11 16
3 3 3 3 3 2 2 2 2 2 2 2 2 2 2 2 2 2 3 2 2 2 2 2 2 1 1 1 2 3 3 3 3 3 3 2 1 2 1 4 9 14 27 41 54 69 73 71 75 80 83 81 72 64 64 56 49 53 54 53 53 53 52 54 54 44 35 31 28 24 23 22 15 7 5 4 3 2 3 4 5 6 7 11 13 13 12 15
3 3 3 3 3 3 3 2 2 2 2 2 2 2 2 2 2 2 2 3 2 2 2 2 2 2 2 1 1 2 3 3 3 3 3 2 2 2 1 3 7 14 26 36 47 58 60 63 69 71 73 72 62 57 57 54 52 52 47 46 50 50 49 51 46 33 27 24 20 18 17 17 15 9 6 5 2 1 2 4 5 5 6 10 13 13 12 14
2 2 2 2 3 3 3 3 3 3 2 2 2 2 2 2 2 2 2 2 3 2 2 2 2 2 2 2 1 2 2 2 2 3 3 3 2 1 2 2 4 12 21 28 37 48 56 62 63 63 66 62 57 56 55 53 54 51 45 45 50 51 50 49 41 29 22 19 14 12 11 11 13 10 7 5 2 1 2 3 4 5 6 8 11 11 10 13
2 2 2 2 2 2 3 3 3 3 3 2 2 2 2 2 2 2 2 2 2 2 2 2 2 2 2 2 1 1 2 2 2 2 3 3 2 2 2 1 3 8 15 21 29 42 56 59 55 58 61 57 56 55 52 51 49 48 46 47 52 55 54 50 42 28 17 13 9 7 6 5 7 6 4 3 1 1 2 3 5 6 6 7 9 9 8 10
2 2 2 2 2 2 2 2 3 3 3 3 3 3 2 2 2 2 2 2 2 2 2 3 3 2 2 2 2 1 1 2 2 2 2 3 3 2 2 2 2 4 10 15 22 35 49 55 55 57 55 53 54 49 47 50 47 46 47 50 55 59 58 51 40 25 12 8 6 4 3 3 3 3 2 3 3 3 4 5 6 7 7 8 8 8 8 9
3 2 2 2 2 2 2 2 2 2 2 3 3 3 3 2 2 2 2 2 2 2 2 2 2 3 2 2 2 2 1 1 1 2 2 3 3 3 2 2 1 2 7 12 23 37 46 54 57 54 50 51 50 44 44 50 46 43 45 50 57 62 62 53 36 20 9 6 4 3 3 4 5 4 4 4 4 5 6 6 7 8 8 9 9 8 7 9
3 3 3 2 2 2 2 2 2 2 2 2 2 3 3 3 3 3 2 2 2 2 2 2 2 2 2 2 2 2 2 1 2 2 2 3 3 3 2 2 2 1 4 10 21 30 37 50 55 51 50 50 46 41 40 46 46 40 40 48 58 65 64 53 33 16 8 5 3 2 4 6 7 7 7 5 3 4 6 7 7 8 8 8 9 8 6 7
4 4 3 3 3 2 2 2 2 2 2 2 2 2 2 3 3 3 3 3 2 2 2 2 2 2 2 3 2 2 2 1 1 1 2 3 3 3 3 2 2 1 3 8 12 18 32 50 53 50 48 44 41 38 37 43 46 40 40 48 57 66 65 49 28 16 11 7 4 4 5 6 7 7 8 6 4 2 3 7 8 7 7 7 8 8 6 5
5 5 4 4 3 3 3 2 2 2 2 2 2 2 2 2 2 2 3 3 3 3 2 2 2 2 2 2 3 2 2 2 1 2 2 2 3 3 3 2 2 2 2 6 10 19 39 51 46 42 41 39 37 36 38 42 43 40 40 44 50 58 57 39 22 17 15 12 12 12 11 10 9 7 7 8 8 4 1 4 6 6 5 6 7 7 5 4
6 5 5 5 4 3 3 3 3 2 2 2 2 2 2 2 2 2 2 2 2 3 3 2 2 2 2 2 3 2 2 2 2 2 1 2 3 3 3 2 2 2 2 4 8 19 35 40 34 32 33 35 37 37 38 38 42 44 39 41 44 46 45 32 21 19 21 25 27 25 25 23 18 11 6 7 10 6 1 1 2 3 4 4 5 5 5 4
7 6 6 5 5 4 4 3 3 3 2 2 2 2 2 2 2 2 2 2 2 2 2 2 2 2 2 2 2 2 3 3 2 2 1 1 2 3 3 3 2 2 2 3 6 14 25 28 29 29 27 32 38 37 37 37 42 43 39 38 35 41 45 28 20 25 30 38 39 38 43 40 32 20 8 6 11 9 3 0 1 1 2 2 3 4 4 4
7 7 7 6 6 5 5 4 4 3 3 3 2 2 2 2 2 2 2 2 2 2 2 2 2 2 3 2 1 2 3 3 3 2 2 1 2 3 3 3 2 2 2 2 4 8 14 20 23 24 24 30 35 33 36 42 43 42 42 32 22 42 49 23 24 40 41 44 45 48 52 47 41 32 17 10 11 12 9 4 1 -0 1 1 1 3 4 4
7 7 8 7 7 6 6 5 5 4 4 3 3 3 2 2 2 2 2 2 2 2 2 2 2 2 3 3 2 2 3 3 3 2 2 2 1 2 3 3 2 2 2 2 3 3 5 10 14 18 24 27 27 28 34 41 42 41 41 28 18 35 35 21 37 50 46 47 48 51 54 53 51 43 29 18 10 11 15 14 8 1 -0 1 1 1 3 4
7 7 8 7 8 7 7 6 6 5 5 4 4 3 3 3 2 3 2 2 2 2 2 2 2 2 2 3 3 2 2 3 3 3 2 2 1 2 2 3 3 2 2 2 3 3 3 5 11 19 23 23 20 23 29 35 36 34 37 33 24 21 20 30 49 51 49 51 48 51 54 59 64 57 43 27 14 11 15 18 16 9 2 -0 1 1 1 3
8 8 8 8 7 7 8 8 7 6 6 5 5 4 4 4 3 3 3 3 2 2 2 2 2 2 2 2 2 3 2 2 3 3 3 2 2 1 2 3 3 2 2 2 3 3 3 6 11 17 19 19 18 17 20 22 23 27 35 39 30 23 28 43 52 51 54 55 52 55 54 58 68 71 61 46 32 22 19 18 16 15 9 2 -0 1 1 1
10 9 8 8 8 7 8 8 8 8 7 6 6 5 5 4 4 4 3 3 3 3 2 2 2 2 2 2 2 3 2 2 2 3 3 3 2 2 2 2 3 3 2 2 2 2 5 6 9 14 15 15 13 9 11 15 21 28 35 36 28 30 45 56 59 61 64 63 62 63 60 60 67 73 73 67 57 44 34 27 21 18 15 7 2 2 3 1
11 10 10 9 8 8 7 8 8 8 8 7 6 6 6 5 5 4 4 4 3 3 3 3 2 2 2 2 2 2 2 3 2 2 3 3 3 2 1 2 3 3 2 2 2 2 4 5 6 8 8 8 7 6 10 19 27 31 37 40 35 41 57 66 68 68 68 68 67 69 67 64 67 70 69 69 65 57 49 41 34 27 18 13 6 2 4 4
12 11 11 10 9 8 7 8 8 8 8 8 7 7 6 6 5 5 5 4 4 4 3 3 2 3 2 2 2 1 2 3 2 2 3 3 3 2 2 2 2 2 3 2 2 2 3 4 3 3 5 7 9 10 14 20 27 34 43 48 55 65 68 69 69 67 66 66 67 69 67 64 68 69 65 63 61 58 55 50 46 40 29 21 13 6 5 6
14 12 11 11 10 9 8 8 8 8 8 8 8 7 7 7 6 6 5 5 5 4 4 4 3 3 3 2 2 2 2 2 3 2 2 3 3 3 2 2 2 2 3 2 2 3 3 3 2 4 10 16 18 18 18 18 20 33 45 55 71 79 73 71 72 71 72 72 70 67 63 63 67 70 67 63 59 56 56 52 50 51 46 35 24 15 8 4
15 14 13 11 11 10 9 8 8 8 7 7 8 8 8 7 7 6 6 5 5 4 5 4 4 3 3 3 2 2 2 2 3 3 2 3 3 4 3 2 2 2 2 3 2 3 3 2 3 6 16 26 29 26 22 17 16 27 46 63 76 77 73 75 76 77 82 82 78 71 63 63 68 73 73 68 63 59 56 54 51 53 56 51 42 31 22 14
16 16 14 12 12 11 9 9 9 8 7 7 7 8 8 8 7 7 6 6 5 4 5 4 4 4 3 3 2 2 2 1 3 3 3 2 3 4 4 3 2 2 2 3 2 3 2 2 4 10 17 24 29 29 24 16 13 22 48 70 73 71 71 73 78 83 86 85 83 79 69 64 69 74 78 76 71 65 62 60 55 55 59 59 55 48 40 34
17 17 16 14 13 12 10 10 9 8 8 8 7 7 8 8 7 7 6 6 5 5 5 5 4 4 4 3 3 2 2 2 2 3 3 3 2 3 4 4 2 2 2 2 2 3 2 2 5 12 16 19 25 31 24 14 10 18 46 71 70 67 69 73 80 84 84 83 82 84 74 64 67 72 83 86 77 75 74 68 64 64 66 63 60 58 52 48
17 17 17 16 15 13 12 11 10 9 9 9 8 8 8 8 8 7 6 6 6 5 5 5 5 5 5 4 4 3 3 3 2 2 3 3 3 3 4 5 3 3 2 2 3 2 3 3 5 11 16 18 21 24 23 15 9 11 34 62 70 69 70 74 78 76 77 75 78 86 72 62 68 71 86 90 81 87 84 73 72 70 72 72 65 63 60 55
19 18 17 17 17 16 14 12 11 11 10 10 9 9 9 8 8 7 7 6 6 6 5 5 5 5 5 5 4 4 4 4 3 2 2 3 3 2 4 5 4 3 2 2 2 2 3 2 5 11 16 21 19 17 22 20 13 9 18 42 63 70 72 73 73 70 68 66 79 89 69 61 71 70 83 88 83 92 84 73 76 71 73 77 68 66 65 61
21 19 18 18 18 17 17 15 12 12 12 11 11 10 10 9 9 8 8 7 6 7 7 6 6 7 7 7 6 5 5 5 4 3 3 3 3 3 3 4 5 4 3 2 2 2 3 2 4 9 15 21 18 13 16 17 12 9 13 25 41 54 65 71 70 67 66 67 80 87 68 60 66 65 75 82 80 85 77 67 70 70 75 77 71 72 70 64
25 22 20 19 18 18 19 17 14 13 13 13 12 12 12 11 10 9 9 8 8 9 9 8 7 7 7 7 6 6 5 5 4 4 4 3 3 3 3 3 5 5 4 3 2 2 3 3 3 7 12 15 14 13 16 18 13 9 14 22 27 36 50 64 71 68 69 72 76 79 71 59 54 59 69 73 74 73 67 65 65 67 74 75 73 75 74 70
26 24 22 21 20 18 20 19 16 15 15 14 14 13 13 12 11 11 10 9 9 9 9 8 7 6 7 7 6 6 5 5 5 4 4 3 3 4 3 3 5 5 5 3 3 2 2 3 2 6 12 11 14 21 23 26 23 14 14 20 26 32 40 54 68 72 74 75 69 70 71 56 42 54 66 64 64 63 62 67 67 67 72 72 72 74 74 73
27 26 24 24 23 20 20 19 17 18 18 16 16 15 14 13 13 12 10 9 10 10 9 9 8 7 7 7 6 6 6 5 6 5 4 3 4 4 3 3 5 6 6 4 3 3 2 4 3 5 10 13 25 33 31 37 38 29 25 24 26 32 39 49 61 71 77 73 62 59 67 60 38 42 59 57 55 60 65 69 69 68 69 68 70 72 74 76
29 28 26 26 26 24 23 20 18 20 21 19 18 17 16 15 14 12 10 10 11 11 10 9 8 8 7 7 7 7 6 6 6 5 4 3 3 5 4 3 4 5 6 4 4 3 3 3 3 4 7 15 33 41 39 47 49 42 40 35 31 34 40 50 59 72 79 70 56 53 63 61 35 31 50 53 53 63 69 68 63 61 62 65 70 75 79 81
31 30 29 27 27 28 27 25 23 21 22 22 21 19 18 16 14 12 11 12 13 12 10 10 9 8 8 8 7 7 7 6 6 5 4 4 3 4 6 4 3 4 6 5 4 3 3 3 3 4 5 13 31 40 41 50 53 50 47 42 42 43 44 51 59 70 79 70 57 58 65 50 24 31 51 52 53 63 61 55 52 53 58 65 67 73 86 90
33 32 32 30 29 30 31 31 30 27 25 25 25 22 20 18 14 12 12 15 16 14 13 11 9 9 8 8 7 7 7 6 6 5 5 4 3 4 7 5 3 4 5 5 5 4 3 4 3 3 5 10 23 33 35 41 47 47 45 42 43 45 46 51 55 63 77 73 57 64 69 38 14 33 52 49 50 56 50 44 45 46 48 57 63 70 85 89
38 36 36 35 32 34 35 35 35 34 31 29 28 26 23 19 15 14 14 17 18 17 15 13 11 10 9 8 8 7 7 6 6 5 5 5 3 3 6 7 4 4 6 6 5 4 3 4 3 3 4 6 14 24 26 32 43 44 40 41 42 38 39 47 52 56 71 75 65 69 62 26 14 35 47 46 49 51 51 48 47 42 36 42 56 66 70 70
42 41 40 39 38 38 39 39 38 38 37 34 33 30 25 21 19 18 17 19 22 19 17 15 12 10 9 8 8 8 7 6 6 6 5 4 4 4 6 8 6 3 5 6 5 5 4 3 3 3 4 5 10 20 25 36 51 51 45 47 45 35 35 49 59 59 67 75 70 68 51 18 18 41 45 44 47 49 52 51 47 43 35 35 47 54 54 56
45 46 44 43 43 43 43 43 42 41 40 38 36 31 27 26 24 22 20 21 23 22 19 16 13 11 9 8 8 8 7 6 6 6 5 5 4 4 6 8 7 5 4 6 6 5 4 3 4 4 4 5 10 18 25 35 46 50 48 44 39 35 38 53 65 63 66 73 64 59 50 23 19 36 40 41 45 46 49 49 47 45 39 37 42 43 43 51
48 49 48 47 47 48 47 47 46 45 43 41 37 32 30 30 28 26 24 23 25 24 21 18 15 13 9 8 8 7 7 7 6 6 6 5 5 4 6 8 9 6 5 7 8 6 5 4 3 4 4 5 9 17 25 32 40 47 44 34 35 45 47 53 67 67 65 69 59 51 50 35 23 27 30 34 39 41 44 45 46 46 39 37 41 43 44 49
50 53 53 51 51 51 51 50 50 49 47 43 39 35 33 32 31 31 29 27 27 26 23 20 17 14 10 9 9 7 7 7 6 6 6 5 5 5 6 9 10 8 6 8 9 8 7 5 4 4 5 6 8 15 23 29 37 44 39 32 40 52 47 45 59 65 62 63 56 50 48 37 26 24 26 30 32 34 40 42 43 45 41 40 46 51 52 53
49 55 59 57 55 55 53 52 52 52 50 46 41 38 36 34 34 35 34 32 30 27 25 22 18 15 12 10 9 8 8 8 7 7 6 7 6 6 10 13 11 9 8 8 10 9 9 7 5 4 5 7 8 12 18 23 31 37 38 41 47 50 46 42 45 52 57 58 53 49 43 27 18 23 30 35 36 33 35 39 42 43 40 43 50 50 51 56
48 54 62 62 61 60 58 56 54 53 52 48 45 42 39 37 36 37 37 34 32 29 26 24 20 16 13 10 9 9 9 9 9 7 7 7 7 8 14 17 15 14 14 13 13 13 12 10 7 5 5 7 7 7 9 15 25 31 35 42 47 48 49 49 45 45 51 54 49 45 36 18 11 22 31 38 40 34 33 37 40 41 40 43 47 47 49 58
52 56 63 64 65 66 65 63 59 56 54 51 49 46 42 39 37 38 39 36 33 32 28 25 22 19 15 11 9 9 9 9 9 8 7 7 7 13 20 22 22 23 21 17 16 16 15 12 11 9 5 4 6 5 5 10 19 26 29 33 38 41 44 47 45 40 41 44 41 39 33 17 11 20 29 43 50 42 38 44 43 42 45 44 44 48 50 56
58 62 65 65 69 73 72 70 67 62 57 54 52 50 46 42 39 39 40 38 35 34 30 27 24 21 17 13 9 9 9 9 9 8 8 6 8 20 30 30 29 28 24 20 18 18 19 19 19 16 9 4 4 5 5 8 13 21 26 26 28 32 36 39 36 28 27 31 32 36 34 20 13 18 28 45 59 52 46 50 48 42 41 39 42 48 48 50
63 67 69 67 71 79 79 77 74 69 63 59 56 53 49 45 42 40 42 41 38 36 32 29 26 22 18 13 9 10 10 10 10 9 9 7 8 22 39 42 37 32 28 25 21 21 23 23 21 18 12 7 6 5 6 7 9 15 19 20 21 23 26 32 32 26 24 24 25 33 35 24 15 17 26 40 50 50 49 53 50 42 39 41 46 51 50 49
68 71 75 72 73 80 83 81 78 74 69 65 60 57 53 49 45 43 44 44 41 38 35 31 27 23 19 14 10 11 11 11 11 11 12 10 10 23 44 52 46 40 37 33 31 32 30 24 21 21 18 14 11 9 7 6 6 8 10 11 14 15 18 25 31 33 34 29 24 26 30 28 22 19 29 42 41 39 46 50 45 39 41 45 47 49 49 48
66 70 75 74 73 79 84 82 80 78 75 70 66 62 58 54 50 47 47 47 44 41 36 32 28 23 20 15 11 11 11 11 12 14 14 12 16 35 57 60 53 51 50 45 43 44 38 29 25 25 21 15 11 8 5 5 5 5 5 6 8 11 14 20 26 31 34 30 25 23 24 28 26 20 31 48 48 43 48 49 42 38 42 43 43 43 45 45
61 64 72 77 77 77 81 81 80 80 78 73 70 67 63 58 54 52 51 50 47 43 37 33 29 24 21 17 13 11 11 13 14 16 16 16 23 47 70 72 63 61 63 59 55 50 42 34 29 24 18 14 10 7 5 5 5 4 5 5 5 8 11 16 22 24 23 23 22 18 18 24 23 17 27 46 52 52 56 54 44 40 41 41 42 44 48 52
64 65 73 86 90 85 82 83 83 84 81 76 73 70 67 63 59 56 55 52 49 44 39 34 29 25 22 18 14 11 11 14 16 17 21 23 32 53 74 82 76 69 67 69 66 58 47 36 28 24 20 15 13 11 10 10 7 5 5 5 5 5 6 12 17 16 14 17 16 10 12 20 17 12 23 41 48 52 60 59 50 43 40 40 43 46 50 53
78 79 83 92 99 98 93 91 90 89 86 81 78 75 71 69 65 61 58 55 51 45 40 35 29 25 22 19 16 12 11 13 14 17 24 28 40 64 83 91 88 78 74 74 69 64 58 45 33 31 27 19 17 16 14 15 13 8 6 5 6 6 4 6 10 10 11 13 10 6 9 14 13 13 22 37 48 55 59 58 51 42 37 38 43 49 51 51
87 93 96 98 100 102 101 98 95 94 92 88 83 80 77 73 70 66 61 57 52 46 41 35 29 26 23 20 17 13 12 13 13 19 28 27 34 61 86 95 94 87 81 77 70 66 64 55 46 44 38 29 25 22 18 18 18 14 9 6 6 7 6 5 6 8 11 10 7 8 10 9 11 17 23 33 46 54 56 54 49 41 37 39 46 51 52 50
87 94 100 102 102 101 101 100 98 95 95 93 88 84 82 77 73 69 63 59 52 44 39 34 29 27 25 21 19 14 12 14 14 22 35 33 29 47 78 96 97 91 88 84 75 66 63 62 60 55 48 38 30 26 22 20 20 17 12 8 8 9 8 7 5 6 9 11 11 11 11 9 9 14 23 34 44 50 51 48 43 39 39 42 48 51 51 49
75 82 90 97 101 102 101 101 100 97 94 93 91 88 84 79 75 71 65 57 49 40 35 32 29 28 27 24 21 16 13 13 16 26 41 43 32 35 65 92 96 92 94 90 78 68 66 70 69 64 54 40 31 31 30 27 27 23 15 12 13 12 10 8 7 6 7 9 12 13 12 10 9 12 22 32 39 44 45 41 36 37 42 46 49 51 52 52
56 62 71 81 90 98 103 102 101 100 95 91 89 89 86 80 75 70 62 54 46 38 34 31 30 29 29 27 23 19 16 13 18 32 45 48 41 32 48 79 93 94 95 88 76 71 71 72 73 71 58 38 34 44 47 49 53 38 16 11 14 14 14 14 11 7 6 8 11 13 12 10 8 13 21 28 36 41 37 32 34 40 45 48 49 51 53 54
Wind_Speed
12 12 12 12 12 13 13 13 14 16 17 19 20 21 22 22 21 20 19 18 16 14 12 10 9 9 9 7 4 3 4 3 3 4 3 2 1 2 5 7 10 15 18 19 21 20 19 18 18 18 16 14 12 12 14 14 14 15 16 17 16 15 14 14 13 11 11 10 12 12 12 11 9 11 13 13 13 11 13 14 11 10 9 8 6 4 8 10
13 13 13 13 13 13 13 13 13 14 15 16 18 19 21 22 22 22 21 20 18 17 14 12 11 10 10 9 7 5 4 5 6 6 2 1 2 3 7 10 12 15 18 20 21 21 20 19 20 20 19 16 13 13 14 14 15 15 16 16 15 14 13 13 13 11 10 10 11 11 11 11 9 9 11 12 12 10 12 13 11 10 10 9 6 3 6 9
15 15 15 14 14 14 14 13 13 13 14 14 15 16 18 20 22 22 22 21 20 19 17 15 13 12 11 11 9 7 6 7 8 7 2 2 3 3 6 10 14 17 19 22 23 23 21 20 21 21 20 17 14 14 14 14 15 15 14 15 15 14 12 12 13 11 9 9 10 10 11 10 9 8 9 10 10 10 11 12 10 9 10 10 7 4 6 8
17 17 16 16 16 15 15 14 14 14 14 14 15 15 16 17 19 21 22 22 21 21 20 18 16 14 12 12 11 10 9 9 9 7 4 4 5 4 5 10 14 18 21 23 24 24 21 20 20 20 19 17 15 15 15 14 14 14 13 14 14 14 13 12 12 11 8 8 9 9 10 9 7 6 7 8 8 9 11 11 10 8 9 9 7 4 5 7
18 18 18 17 17 17 17 16 15 15 14 15 15 15 15 15 16 17 19 21 21 22 21 20 19 17 15 13 13 13 12 11 10 9 7 6 7 6 6 10 14 17 19 20 22 23 21 19 18 18 18 17 15 14 14 14 14 14 13 13 14 14 13 11 11 10 8 7 7 9 10 8 6 6 7 7 7 8 10 11 10 8 8 9 8 5 5 7
19 18 18 18 17 17 17 17 17 16 16 15 15 15 16 16 16 15 16 18 20 21 21 21 21 19 17 15 15 15 15 14 12 10 9 8 8 7 8 10 13 17 18 18 19 21 21 19 17 16 17 16 15 14 14 14 13 13 13 13 13 14 13 11 9 9 8 6 6 9 10 8 7 8 9 10 9 8 9 10 9 8 7 9 9 6 6 7
20 19 19 18 18 17 17 17 17 17 17 17 16 15 16 16 16 15 15 16 17 19 21 21 21 21 20 18 17 17 18 17 13 11 11 10 9 8 9 10 12 15 17 16 17 18 20 19 17 17 17 16 15 13 13 13 13 13 13 13 13 13 13 11 8 7 7 5 6 8 10 10 10 11 12 12 11 9 7 8 9 8 7 8 9 7 7 7
21 21 20 19 18 18 17 17 17 17 17 17 17 16 16 16 17 16 16 16 16 17 18 20 21 22 22 21 19 19 21 19 15 14 13 11 11 10 9 11 12 13 15 16 17 19 20 19 19 19 17 17 15 13 12 13 12 12 12 12 12 12 11 10 6 5 7 7 6 8 12 13 13 14 14 13 13 10 7 7 8 8 7 8 9 8 8 8
22 22 22 21 20 19 18 17 17 17 16 16 16 16 16 17 17 17 16 17 17 17 17 18 20 22 23 23 22 22 23 20 18 18 15 12 13 12 11 12 12 13 15 18 20 21 20 20 20 19 18 18 17 14 13 13 12 11 12 12 11 10 9 8 5 5 9 9 9 11 14 15 15 14 14 13 13 12 9 8 8 8 8 8 9 9 9 9
22 23 23 22 22 20 19 19 18 17 16 16 15 14 15 16 16 17 17 17 18 18 17 17 18 20 23 23 24 26 24 21 21 20 17 15 15 14 13 13 13 14 16 19 20 18 19 22 22 22 22 21 18 16 14 12 11 11 11 11 11 9 7 7 6 7 9 10 11 13 15 15 16 15 13 13 12 12 11 9 9 9 8 8 8 10 10 10
22 23 23 23 23 22 21 21 20 19 18 17 16 14 14 15 15 16 17 17 18 19 19 18 17 17 20 22 26 28 24 22 23 23 22 19 17 16 15 15 15 16 17 18 19 19 21 26 26 25 23 20 18 17 15 12 12 12 11 11 11 9 7 6 7 9 10 11 13 14 14 14 15 14 13 12 11 10 10 10 9 9 8 8 8 9 11 11
23 23 23 23 24 23 23 22 22 22 21 19 18 16 16 16 16 16 16 17 18 19 19 19 18 17 17 20 27 28 24 25 25 25 26 22 20 19 17 17 17 17 19 19 20 22 25 27 26 24 21 18 17 17 16 13 12 13 13 12 12 10 8 7 9 11 12 13 14 15 15 15 15 14 12 11 10 9 9 9 8 8 8 8 7 8 10 11
24 23 24 24 24 24 24 24 23 23 23 22 21 19 18 17 17 17 17 17 18 19 19 20 19 18 17 19 24 25 24 27 28 28 27 25 22 21 20 19 19 19 21 20 21 23 26 26 25 23 20 18 18 18 16 15 14 14 14 14 13 12 8 8 12 14 15 14 15 15 15 16 17 16 13 11 10 9 8 9 9 7 6 7 8 7 8 10
25 24 24 24 25 25 25 24 24 25 25 24 23 22 20 20 19 18 18 18 19 19 19 20 20 18 18 21 21 19 24 28 31 31 28 26 26 24 22 22 21 22 23 23 23 23 24 25 25 24 22 20 19 18 16 17 17 15 16 15 15 14 9 11 16 16 15 15 14 14 15 17 17 16 14 12 11 10 8 8 9 8 6 5 6 7 7 8
25 25 25 25 25 26 26 25 25 26 26 25 25 24 23 22 21 20 20 20 20 20 20 20 21 19 19 23 20 16 23 30 32 32 30 29 28 26 25 24 25 24 25 26 25 23 22 23 23 22 22 21 20 18 17 17 17 17 16 14 14 14 13 15 17 16 16 16 15 14 16 18 18 16 15 13 11 10 8 6 6 7 7 6 5 6 7 8
26 26 26 26 26 26 26 26 26 27 27 26 26 25 24 24 23 23 22 22 22 21 21 21 21 21 20 23 22 18 22 30 33 33 32 31 30 29 28 27 28 27 27 28 27 25 23 23 23 23 24 23 20 17 18 19 17 17 16 13 12 14 17 18 17 17 17 16 15 14 15 18 18 16 14 13 11 10 8 6 5 4 6 7 6 6 6 7
27 27 27 27 27 27 27 26 27 27 28 28 27 26 26 25 25 24 24 24 23 23 23 22 21 22 22 23 24 21 21 27 32 33 34 34 33 31 31 30 30 30 29 29 28 26 25 24 24 25 25 24 21 18 17 16 14 13 15 16 16 16 18 18 18 18 18 16 15 15 14 16 18 16 15 13 10 9 7 5 4 4 3 4 6 7 6 7
28 28 28 28 28 28 28 27 27 28 28 29 28 28 27 26 25 25 25 25 25 24 24 24 23 22 23 24 26 25 21 24 29 33 35 36 35 34 33 33 33 33 31 30 28 26 26 26 26 27 26 24 21 15 11 10 9 11 13 16 20 21 20 20 20 20 19 18 17 16 15 15 16 16 15 13 11 8 5 4 3 3 3 2 5 7 7 7
29 29 29 29 29 29 29 28 28 28 29 29 29 29 28 27 26 26 26 26 26 26 26 26 24 22 23 25 27 26 23 22 26 31 35 37 37 37 36 35 35 35 34 32 28 26 26 26 26 25 24 21 16 10 9 10 11 13 14 15 19 21 22 24 23 21 20 19 18 18 16 15 15 14 14 13 11 8 5 3 2 2 2 1 3 5 7 7
30 30 29 30 30 30 30 29 29 29 29 30 30 30 29 29 28 27 27 27 27 27 27 28 26 23 24 26 28 27 24 24 25 28 33 37 39 39 38 38 37 37 37 34 30 28 29 26 23 21 19 19 16 12 12 14 16 16 16 18 20 21 23 24 23 22 21 19 19 18 17 16 15 13 13 11 10 8 6 3 1 1 1 0 2 4 5 6
31 30 30 30 31 31 30 30 30 30 30 30 30 31 30 30 29 28 27 28 28 28 28 29 27 24 23 25 28 27 24 24 26 27 30 36 40 41 41 40 39 39 38 36 33 33 32 25 21 21 23 23 21 19 17 18 20 18 18 24 26 24 25 25 23 22 20 19 18 17 17 16 15 14 12 10 9 8 6 3 2 1 1 1 2 3 4 5
33 31 31 31 31 31 31 30 31 31 31 31 31 31 31 31 30 29 28 27 29 29 28 29 29 26 24 24 26 27 24 24 26 28 29 34 39 42 42 42 41 40 39 38 37 37 34 25 21 25 28 30 29 26 23 21 22 21 22 28 30 28 27 26 25 24 22 19 18 17 17 16 16 15 13 10 9 7 6 4 2 3 2 2 2 3 3 5
35 33 32 32 32 32 31 31 31 31 31 32 32 32 32 32 31 30 29 27 27 29 29 29 29 29 28 25 24 25 24 24 27 31 30 32 38 41 43 44 43 42 42 41 40 39 34 25 25 30 32 34 34 31 28 25 25 24 26 32 32 30 30 27 26 24 22 21 19 17 17 17 17 15 13 9 7 6 5 3 2 4 3 3 3 3 4 5
38 35 33 33 33 33 32 32 32 31 31 32 32 33 33 33 32 31 30 28 25 26 29 29 28 29 30 28 26 24 24 23 26 30 31 31 36 41 43 44 45 45 45 43 42 41 36 28 30 35 36 36 36 35 32 27 25 26 28 32 31 30 29 27 25 24 23 23 22 19 20 20 18 16 12 8 8 7 4 2 1 3 4 3 3 3 5 6
39 37 35 34 34 35 34 33 33 32 31 32 32 33 33 33 33 32 31 30 26 24 27 29 29 28 29 30 29 27 25 23 25 29 32 31 34 40 43 45 47 47 46 45 44 43 39 34 35 38 39 38 37 37 35 29 26 27 29 30 29 27 26 26 26 25 24 25 22 19 21 22 19 17 12 10 11 8 6 6 3 4 5 3 2 2 3 5
40 39 37 36 36 36 36 36 35 34 33 33 32 33 34 34 34 34 33 33 29 24 25 28 29 28 29 30 30 30 28 25 25 29 32 31 33 39 44 46 48 48 47 47 47 45 41 37 38 42 42 42 39 37 36 34 28 26 27 27 28 28 27 27 27 25 25 23 20 18 20 21 20 19 16 14 16 13 11 12 8 7 7 5 4 2 2 4
41 40 38 38 37 37 37 38 37 35 35 34 34 34 34 34 34 34 35 35 31 26 25 27 28 29 29 29 29 30 29 27 26 28 30 32 33 36 43 47 48 49 49 50 50 47 43 39 41 45 45 45 43 38 36 35 31 25 25 26 28 28 28 27 27 26 24 22 21 21 20 21 22 22 19 17 18 17 15 14 12 11 9 6 5 3 2 3
42 41 39 39 39 38 38 39 39 38 36 36 35 35 35 34 34 34 35 36 32 27 26 26 27 29 30 29 28 29 30 29 27 27 29 32 34 36 42 47 48 49 50 51 51 48 44 42 43 46 47 46 43 39 36 37 33 26 25 27 26 26 27 28 28 28 26 26 26 24 22 23 22 21 20 18 18 17 15 13 13 13 10 7 6 4 3 4
44 43 41 40 40 40 39 40 41 40 38 38 37 37 36 36 35 35 36 36 33 28 28 27 27 29 31 31 29 29 31 31 30 28 28 32 34 36 39 44 47 49 51 52 51 48 47 46 45 48 50 47 43 42 40 40 37 30 28 29 28 27 28 29 32 32 31 31 30 26 24 25 21 21 22 20 17 14 12 12 13 13 11 9 7 5 5 6
46 45 44 42 41 41 41 41 42 41 41 40 39 39 38 37 37 37 37 36 32 29 29 29 29 30 31 32 31 30 30 32 32 29 28 31 33 35 38 43 47 49 52 54 53 51 50 49 49 51 52 48 47 46 44 44 42 38 35 33 31 31 30 32 34 34 36 36 33 28 26 26 23 23 24 19 14 12 13 17 16 14 13 10 7 7 8 9
48 47 46 44 43 42 42 43 43 42 43 42 41 41 40 40 39 39 37 34 31 31 32 33 31 30 32 32 32 31 30 32 32 30 29 30 33 35 38 42 48 51 54 56 55 53 52 52 52 52 51 52 53 51 48 49 47 45 43 40 36 35 34 35 36 38 41 40 35 30 28 30 25 19 21 18 15 15 17 19 17 16 15 12 9 9 10 12
49 49 48 47 45 45 45 45 44 45 45 43 44 44 43 43 41 39 37 34 32 33 33 34 33 32 33 33 33 32 31 31 32 31 29 30 32 34 37 40 46 52 55 57 56 55 54 54 53 53 53 54 56 55 53 54 53 50 49 45 42 41 40 40 40 41 43 41 35 32 32 33 23 15 21 20 17 15 16 18 17 16 16 14 13 12 12 14
51 51 50 50 48 47 47 46 46 47 47 46 46 46 46 46 42 37 36 35 34 35 34 35 35 34 34 34 33 33 31 32 32 31 30 30 32 34 36 39 44 50 54 54 56 56 55 54 54 55 55 57 59 58 56 57 56 54 53 50 48 47 45 44 43 43 44 40 35 33 35 33 20 17 22 19 16 16 16 17 17 18 17 17 17 15 16 18
54 53 53 53 52 50 49 49 48 49 49 49 48 48 49 48 43 38 38 37 36 36 36 37 38 36 35 34 34 34 32 32 32 31 31 31 31 33 36 39 42 48 53 54 56 56 56 56 56 56 57 57 59 60 57 55 55 54 53 51 50 49 47 46 45 43 43 41 36 37 38 28 15 17 20 19 18 18 18 18 19 21 19 17 20 19 18 16
55 55 55 55 55 53 51 50 49 49 50 50 50 51 51 48 43 41 41 39 39 38 38 38 38 37 36 35 36 36 34 33 33 32 31 31 31 31 35 38 40 46 52 55 57 58 57 57 54 55 57 57 59 60 58 57 58 57 55 53 53 50 46 45 46 44 43 42 40 42 39 24 16 19 20 20 20 19 19 19 20 21 19 17 21 22 18 14
56 56 56 56 55 54 52 50 49 49 50 51 52 52 50 47 45 44 44 43 43 40 38 38 38 37 37 37 37 37 36 34 33 32 31 31 31 31 33 37 39 44 50 53 56 58 58 57 54 55 58 58 59 61 59 59 61 60 59 58 55 50 47 47 48 47 45 45 45 45 41 30 23 22 21 20 19 18 19 18 19 20 18 17 19 18 14 11
58 57 57 57 56 55 53 50 49 50 50 52 53 51 48 46 46 46 46 46 45 42 40 39 38 38 38 38 38 38 37 35 33 33 32 31 32 31 32 36 39 42 47 51 53 55 56 56 54 55 58 59 59 60 61 61 62 62 62 58 54 53 52 50 51 51 49 50 50 48 43 37 32 28 24 22 21 19 18 18 18 18 17 16 16 15 11 11
61 60 59 59 58 56 55 53 51 51 52 53 53 50 48 48 47 47 48 48 47 44 42 41 40 40 39 39 39 39 38 36 34 34 33 32 32 30 31 36 38 40 45 49 51 53 54 54 54 54 56 58 59 60 63 63 64 65 63 57 56 58 57 54 55 55 53 53 53 50 46 42 37 32 27 24 23 21 19 18 17 17 16 13 14 14 13 14
65 63 61 60 59 58 57 55 53 52 53 54 52 50 48 48 48 48 49 49 48 46 44 43 42 41 41 41 40 39 39 38 36 34 33 32 32 30 30 34 37 39 42 47 50 52 53 54 54 55 54 56 59 62 64 65 66 66 65 62 61 61 59 56 56 56 55 55 54 53 50 44 37 32 28 25 23 21 20 16 15 16 15 12 12 13 13 14
67 66 64 62 60 58 56 56 55 53 53 52 50 49 48 48 49 50 51 50 50 49 47 45 43 43 43 42 41 40 40 39 37 35 33 32 32 31 30 33 36 37 39 44 47 49 51 53 54 54 55 57 60 63 63 64 66 67 67 68 66 64 62 59 57 57 57 56 56 55 53 45 34 30 28 26 24 21 17 14 14 16 15 13 14 13 13 14
68 67 66 64 61 58 55 55 54 54 53 51 49 49 49 49 50 51 52 52 52 50 49 47 46 45 44 43 41 40 41 40 38 37 35 32 31 31 31 32 34 36 37 42 45 47 50 52 53 53 55 58 60 61 60 61 64 66 67 68 67 65 63 61 60 60 58 58 58 57 56 48 36 29 28 26 26 23 17 14 15 15 16 16 15 15 15 15
67 67 67 66 62 58 56 54 53 54 53 51 50 50 50 51 51 52 53 53 53 52 50 49 48 47 45 43 41 41 41 41 40 39 37 33 31 31 32 33 35 37 39 41 44 46 48 50 50 50 54 57 58 58 58 60 62 64 66 67 65 64 63 62 62 60 58 59 59 58 58 51 40 32 29 27 28 27 21 18 17 15 15 15 15 16 17 17
66 66 67 66 63 59 56 54 53 53 53 52 52 51 52 52 53 54 54 54 53 52 51 50 49 48 45 43 42 42 42 42 41 40 38 34 32 32 34 35 36 38 40 41 42 43 46 49 50 51 53 55 55 55 56 57 59 63 66 66 66 65 64 63 62 59 59 60 59 59 60 55 45 36 29 27 28 27 23 22 20 16 15 16 17 18 19 19
64 65 66 66 64 61 57 55 54 54 53 53 53 53 52 53 54 55 55 54 52 52 51 50 49 48 45 43 43 43 44 43 42 40 38 36 35 34 35 36 37 38 40 41 40 41 44 48 50 51 52 53 54 55 56 58 58 61 64 64 64 64 63 63 63 62 63 64 60 59 60 57 49 39 32 31 29 25 24 24 22 19 17 18 19 21 22 23
61 63 64 65 65 62 59 57 55 54 53 53 53 53 54 54 55 55 56 54 52 52 52 50 49 48 46 45 44 44 45 45 43 41 40 39 37 36 36 38 38 38 39 41 41 41 43 46 49 50 53 56 58 60 61 60 60 60 61 62 63 63 63 63 64 66 68 67 63 62 61 57 49 41 35 35 33 28 25 23 20 18 17 19 21 23 24 24
58 60 60 61 62 62 60 58 56 55 54 53 53 54 55 56 56 57 57 55 52 52 51 50 49 49 47 46 45 44 45 45 44 41 40 40 39 39 39 40 39 39 39 40 42 43 45 47 48 50 53 56 59 60 59 57 58 59 58 58 60 62 63 63 64 66 67 66 65 63 60 55 48 41 36 35 35 32 28 23 19 17 18 20 23 24 24 23
57 58 57 56 57 58 59 57 56 54 54 54 54 55 56 57 57 58 57 56 53 52 51 51 50 49 48 47 46 45 45 46 45 43 42 42 42 41 41 41 40 40 39 40 42 45 47 48 48 48 51 53 53 54 53 50 51 55 55 53 54 58 60 62 64 64 63 63 63 58 55 53 47 40 36 35 36 34 32 29 24 21 22 22 21 23 25 25
56 56 56 54 53 54 55 56 55 54 54 55 55 56 57 57 58 58 58 57 54 52 52 51 49 49 49 49 48 48 48 48 48 46 44 44 44 43 42 41 39 39 40 42 44 45 46 47 45 45 48 49 48 48 48 46 45 47 50 50 49 51 56 60 62 62 60 61 59 52 51 51 46 39 37 36 36 34 31 30 26 24 25 23 19 20 23 25
56 55 55 54 52 50 52 54 55 54 54 55 56 57 57 58 58 58 58 57 54 52 51 51 50 49 50 50 50 50 49 49 48 46 44 44 44 45 44 41 39 38 40 43 45 46 46 44 42 42 44 45 43 41 44 44 41 41 45 48 47 48 51 55 58 60 60 59 56 51 50 49 45 41 39 38 37 35 32 31 29 27 25 23 19 18 21 23
55 54 54 53 52 50 50 51 53 54 54 55 57 58 57 57 57 57 57 56 53 51 51 51 50 50 51 51 51 50 50 49 49 47 45 45 45 46 46 44 41 40 40 43 47 47 45 42 40 40 42 43 39 37 40 41 40 40 43 45 46 46 48 50 53 55 59 59 55 53 52 50 45 42 41 39 38 36 33 32 31 29 26 23 19 18 19 21
52 52 53 52 51 51 51 51 52 53 54 55 57 57 57 56 56 56 56 54 52 50 51 51 51 51 51 51 51 51 50 50 50 48 47 46 46 47 48 47 45 43 42 45 49 49 44 41 38 38 41 41 37 35 38 38 37 40 43 44 45 46 47 49 50 52 55 57 56 55 54 50 45 43 42 40 37 35 33 31 30 28 26 23 19 18 20 21
49 49 50 51 50 50 51 51 51 52 52 53 55 57 56 55 55 55 54 52 50 50 50 51 52 52 51 51 51 51 51 51 50 49 49 47 46 46 49 50 48 46 45 47 50 50 46 42 38 38 41 41 37 35 36 35 36 42 47 47 45 46 46 47 48 51 52 54 55 56 53 49 46 44 43 41 37 35 33 30 27 26 25 23 20 20 22 24
Wind_Direction
302 301 302 302 302 302 301 299 297 293 288 284 281 280 279 277 274 271 267 265 265 263 262 261 259 254 252 255 262 286 293 284 256 244 248 246 230 189 170 160 167 171 171 175 176 173 167 164 164 161 164 168 161 149 142 133 124 117 107 99 93 89 88 89 82 74 68 64 67 62 56 50 54 81 86 87 86 89 100 97 97 103 106 106 111 149 137 131
300 299 298 298 298 299 299 299 299 298 295 291 285 281 279 277 276 274 270 266 263 261 259 256 256 253 249 248 246 254 270 267 253 255 284 110 200 192 166 156 165 172 169 173 176 174 171 170 168 165 168 171 166 158 152 141 131 124 114 103 95 90 90 93 87 78 69 64 67 65 61 54 48 69 84 88 89 90 96 95 96 103 105 100 97 118 123 123
300 299 297 296 295 295 296 296 297 297 297 296 292 288 283 279 277 275 273 269 265 261 257 254 252 251 248 243 239 239 246 253 258 268 284 188 232 231 173 160 166 173 172 175 179 179 179 178 174 170 169 170 165 160 155 144 134 127 118 107 98 92 93 97 93 83 72 66 66 66 63 58 51 62 79 89 98 100 98 97 96 100 102 96 93 104 115 121
301 299 297 296 295 294 294 293 293 294 294 295 295 294 290 286 281 277 275 272 268 263 258 254 249 248 245 241 236 232 236 245 257 269 267 225 230 238 196 175 176 178 178 180 182 185 187 183 178 174 169 167 160 157 154 143 135 130 119 109 100 93 93 98 98 88 76 70 69 69 67 63 57 67 82 88 99 107 105 101 97 99 100 97 96 101 113 124
307 303 299 297 295 295 294 293 292 292 291 292 293 294 294 293 289 284 279 274 270 266 261 256 251 247 243 240 234 229 233 240 248 259 261 240 230 233 211 193 188 186 187 186 185 189 190 186 185 180 171 165 155 151 151 142 134 129 118 107 99 91 88 92 94 86 72 69 77 77 72 69 66 78 90 91 98 106 106 103 99 96 100 101 99 99 113 127
315 311 306 303 299 296 294 293 293 292 290 290 290 292 293 294 294 292 288 281 274 268 263 258 253 248 243 239 233 229 231 236 243 252 256 247 238 236 221 206 197 195 196 192 190 191 190 191 194 186 175 166 158 155 151 143 135 127 117 106 97 88 81 79 83 78 64 65 84 82 76 75 79 85 89 89 93 98 101 103 101 96 100 106 103 100 111 126
318 317 314 310 307 302 299 295 293 292 291 291 290 291 292 292 293 293 293 289 281 273 266 259 255 250 244 239 235 230 229 235 239 241 245 245 241 237 226 216 207 201 202 200 195 193 194 195 194 190 184 172 167 167 157 146 139 130 121 110 99 89 79 73 73 72 70 80 93 88 87 89 88 88 89 89 89 88 91 101 106 103 105 111 108 106 108 119
318 317 316 314 312 309 306 302 298 295 294 293 292 291 292 292 292 292 292 290 287 282 273 263 255 251 246 239 235 230 230 234 231 231 237 237 240 237 225 222 216 204 201 202 195 193 197 197 195 196 190 180 177 177 164 150 147 141 130 119 106 96 86 80 77 89 100 107 107 100 99 98 91 87 87 88 89 86 82 92 106 110 111 114 113 111 110 120
316 315 314 313 312 311 309 307 304 301 299 297 296 295 294 293 292 292 291 289 288 286 281 272 260 252 247 241 236 232 232 233 227 229 233 230 237 238 224 223 218 205 201 200 198 195 195 195 198 198 192 188 187 185 173 158 156 151 140 132 119 105 98 96 101 119 122 120 116 109 104 98 90 85 82 82 85 87 84 84 93 104 113 117 120 118 114 121
310 311 312 311 311 309 308 306 304 302 301 300 300 300 298 296 295 294 291 289 288 286 284 279 270 258 249 243 239 235 232 232 229 229 230 226 231 234 225 221 215 208 204 203 205 202 193 193 198 199 197 198 197 191 182 170 166 160 150 145 132 120 117 120 132 139 132 125 116 106 99 95 90 84 78 75 77 84 87 85 83 90 105 117 125 126 122 121
304 306 307 308 308 308 306 305 302 300 299 299 299 299 299 297 298 297 293 290 288 286 283 281 278 269 256 246 241 239 233 231 231 228 228 224 224 228 225 221 214 210 209 208 208 202 194 196 201 203 202 203 202 192 187 183 175 167 159 151 140 132 135 141 147 147 136 123 110 100 93 92 89 84 80 73 69 76 87 91 88 82 89 107 123 130 131 129
301 301 302 303 304 304 305 304 302 299 298 297 296 296 295 295 295 295 293 292 289 286 283 282 280 278 268 251 243 241 234 231 231 228 229 225 222 224 223 221 215 210 213 211 208 203 202 205 207 208 205 204 202 195 192 190 181 175 165 155 150 144 145 153 154 146 134 119 108 101 94 91 88 86 83 77 69 69 81 92 97 89 82 90 109 130 138 137
299 299 299 299 300 300 301 301 301 299 297 296 295 295 293 292 291 290 290 289 288 286 285 284 281 279 274 260 250 243 235 232 232 231 230 226 224 224 222 222 217 212 213 214 211 208 210 213 212 212 210 206 204 200 196 193 192 186 172 166 162 150 149 163 155 143 133 121 114 109 100 93 88 86 86 83 74 68 77 91 98 98 88 84 93 116 141 146
298 297 296 296 297 297 297 298 298 297 296 295 295 294 293 291 289 288 287 286 285 285 285 284 282 279 274 267 262 247 234 233 232 231 230 227 225 225 223 222 219 215 213 216 218 217 218 218 217 216 213 210 209 205 197 196 200 194 181 177 169 154 157 165 152 141 134 126 122 117 107 98 90 86 87 86 79 69 71 85 92 93 94 94 93 105 136 150
300 297 295 294 293 294 295 295 295 294 293 293 293 293 293 291 289 287 285 284 283 282 282 282 280 279 275 271 269 252 234 232 232 230 229 228 226 224 225 224 222 218 214 215 220 226 227 225 224 220 214 214 216 210 197 198 205 201 188 178 174 165 157 156 151 144 139 134 129 121 110 103 95 90 88 88 86 77 69 69 81 91 95 101 103 105 126 144
302 300 297 294 292 291 292 292 293 292 291 290 291 291 291 291 290 288 286 284 283 282 280 279 278 277 276 272 269 257 238 233 232 230 228 227 226 224 224 226 226 222 218 216 218 224 228 229 227 221 217 219 222 214 202 202 208 206 187 166 173 172 154 151 153 148 142 138 133 123 113 106 100 95 91 90 90 86 78 65 57 77 95 106 111 110 122 137
301 300 298 296 294 291 290 290 290 289 288 288 288 288 288 288 288 288 287 285 283 282 280 278 277 276 275 273 268 261 246 238 233 229 228 227 226 224 223 225 228 227 223 219 219 220 224 226 225 222 221 223 226 221 207 202 203 200 180 160 163 165 152 147 147 144 139 135 129 121 114 108 104 101 98 95 94 91 87 74 54 42 69 111 120 121 127 139
299 298 297 295 294 292 290 289 288 287 287 286 286 286 285 285 284 284 285 285 284 282 281 279 277 276 275 271 267 264 256 248 240 232 228 227 226 224 222 223 227 229 229 226 224 221 220 222 223 223 224 225 226 218 190 177 184 185 174 166 166 162 152 146 145 142 139 135 127 119 116 113 108 108 107 104 101 99 93 82 63 41 34 99 133 135 136 147
297 295 294 293 292 292 290 289 287 285 285 284 284 284 283 282 281 281 281 282 282 282 281 279 278 278 276 272 268 266 262 255 247 237 230 227 226 224 223 222 225 228 230 230 229 226 221 220 222 224 225 225 223 209 172 166 182 179 172 174 171 162 156 155 156 153 148 143 134 125 122 120 116 113 113 111 107 106 106 102 82 57 43 68 147 153 152 157
296 294 291 290 289 289 289 288 286 284 283 283 283 283 282 282 280 279 279 279 279 280 280 279 278 278 278 275 270 267 264 258 251 243 234 229 227 225 223 222 223 227 229 229 231 230 224 223 227 228 229 229 227 219 198 187 186 178 174 172 165 163 164 164 164 160 154 150 144 138 133 129 125 120 117 115 111 108 105 113 139 105 81 62 172 173 175 176
296 293 290 288 287 286 286 286 285 284 282 281 281 282 282 282 280 279 278 278 277 276 277 278 278 277 276 277 275 269 263 259 255 248 237 231 229 226 224 223 223 226 229 228 229 229 226 226 229 226 224 226 229 227 217 201 188 183 178 167 165 170 170 168 168 162 159 157 154 151 144 139 136 130 126 121 116 110 102 107 165 184 187 242 235 212 208 210
296 292 289 287 285 284 283 283 283 283 282 280 279 280 281 281 280 279 276 277 277 275 274 275 276 276 273 273 276 275 268 259 254 249 239 231 229 228 226 225 223 225 227 228 228 229 229 229 225 220 217 219 224 225 222 211 194 188 181 172 172 175 172 172 171 167 166 166 164 161 155 149 145 140 137 132 126 118 104 99 156 187 194 222 248 251 244 245
294 292 288 285 284 282 281 281 281 281 281 281 279 278 278 279 279 278 276 275 277 276 274 273 274 275 273 270 272 276 273 263 254 251 244 233 229 228 226 225 224 223 225 227 229 231 232 230 220 216 215 216 220 222 222 215 198 189 183 178 178 176 175 176 175 174 175 175 172 170 170 161 151 145 140 142 145 134 112 92 145 180 187 208 229 254 253 252
292 291 288 284 282 281 280 279 279 278 279 280 279 278 277 277 277 276 275 274 274 274 274 275 275 274 275 275 273 275 276 271 261 253 248 239 231 228 226 225 224 223 224 226 228 230 231 228 219 215 214 215 218 220 222 218 201 189 185 184 182 180 180 180 182 185 185 183 177 179 184 170 155 152 150 163 166 151 143 124 140 179 176 195 207 241 254 249
288 289 287 284 281 280 279 278 277 277 277 277 278 278 277 276 275 274 273 272 270 270 273 275 275 274 275 276 275 275 276 274 266 257 249 242 234 229 226 224 224 223 224 225 226 228 227 224 219 217 216 215 217 220 223 221 207 194 189 188 186 185 188 190 193 194 194 189 181 190 194 176 166 168 171 184 170 162 184 169 173 201 176 181 190 210 263 259
285 286 286 284 281 279 278 277 276 275 275 275 276 276 275 275 274 273 273 272 270 271 272 271 272 272 272 273 274 275 275 273 270 263 255 245 237 232 227 224 224 224 224 224 226 226 225 222 219 217 217 216 216 219 221 222 216 199 188 190 191 193 199 201 201 203 203 194 187 204 204 186 184 180 178 191 181 185 201 178 175 194 182 186 190 186 277 281
284 284 284 283 280 279 278 277 275 274 274 275 275 275 274 274 273 273 273 272 272 274 271 268 269 270 269 269 270 272 273 272 270 266 259 249 240 235 230 225 222 222 224 224 225 225 223 221 220 218 217 217 217 218 219 222 220 200 185 193 198 202 208 209 209 212 212 205 202 212 211 202 199 187 184 197 194 198 201 181 176 181 179 190 196 202 274 292
282 282 281 281 279 278 278 277 275 274 274 274 275 274 274 274 272 272 273 272 272 273 271 267 267 268 268 267 266 267 269 271 269 265 261 253 242 236 232 227 222 221 223 225 226 225 222 221 222 220 219 220 219 217 218 223 223 207 192 198 203 208 214 215 218 220 219 219 216 214 218 218 207 193 196 204 204 206 199 187 182 175 177 192 203 223 261 279
279 280 279 278 278 277 276 276 275 275 275 274 273 274 274 273 272 271 270 270 270 270 269 267 265 265 267 267 265 264 265 268 268 265 264 259 248 239 234 229 224 221 222 224 225 224 222 221 222 221 220 222 221 217 217 222 224 218 209 206 206 211 216 217 220 223 224 227 223 217 222 227 213 195 201 210 212 210 197 187 181 175 186 197 206 232 253 268
278 277 277 276 275 275 274 274 274 275 275 274 273 273 272 271 271 270 268 268 270 270 268 265 263 264 265 267 266 264 263 266 268 266 264 261 252 242 235 230 224 221 222 223 223 222 221 220 221 221 220 220 219 216 217 220 222 222 221 217 213 215 219 222 223 224 227 229 225 220 222 231 225 203 203 211 202 192 189 189 184 184 192 192 205 241 257 265
277 276 275 274 274 273 273 272 272 273 274 274 273 271 270 269 268 267 267 269 271 269 266 265 264 262 263 265 266 265 263 263 266 267 264 262 256 245 237 232 226 221 220 222 222 220 220 219 220 221 221 218 216 215 216 218 219 220 223 222 221 222 223 226 227 226 230 230 226 225 228 237 241 214 200 200 184 184 198 201 197 195 192 186 199 224 242 252
276 275 274 273 272 272 271 271 271 271 271 272 271 270 269 268 265 265 267 270 270 268 265 265 264 261 260 262 263 264 263 263 264 266 263 261 259 250 241 236 231 225 222 222 221 220 219 218 219 221 220 218 215 214 213 216 217 218 221 220 221 224 225 228 230 229 232 231 228 231 235 241 244 200 185 189 180 187 205 209 207 203 195 188 198 212 219 231
275 275 274 272 271 270 270 270 270 269 269 269 269 268 268 266 264 264 267 268 269 267 265 264 262 260 259 261 262 262 262 261 261 263 262 260 258 252 242 237 233 228 225 223 223 222 220 218 218 220 221 219 216 214 213 215 216 217 219 219 219 222 223 226 229 231 234 234 231 235 237 241 236 188 182 186 183 190 204 211 214 216 211 197 200 212 214 222
274 273 273 272 270 269 268 268 268 268 267 266 266 266 265 264 264 265 266 267 266 265 263 262 262 261 260 260 261 261 260 260 259 259 259 258 257 252 244 238 233 229 226 223 222 223 222 219 216 218 221 220 218 217 215 216 217 219 221 221 221 222 223 225 228 231 234 235 235 237 238 237 215 180 184 189 191 200 208 217 223 229 235 219 208 217 225 233
273 272 272 271 271 269 267 266 265 265 265 264 263 262 263 264 265 264 265 266 264 261 260 261 261 261 260 259 259 260 259 258 258 258 257 257 255 251 245 240 235 231 228 225 223 222 222 220 217 218 222 223 221 219 216 215 217 219 222 223 224 225 224 227 230 232 235 238 237 238 238 229 192 177 186 192 195 203 210 219 226 234 250 244 223 225 236 241
273 272 271 270 270 269 267 265 263 262 262 262 261 261 262 264 263 262 263 263 262 261 259 258 258 258 258 257 257 257 257 256 256 256 256 255 254 249 244 241 236 232 230 228 226 224 223 221 216 217 222 224 223 221 217 215 216 217 220 223 224 226 225 227 231 233 235 237 238 239 238 232 214 198 192 194 198 203 212 222 229 236 252 252 235 235 244 240
272 271 271 269 269 268 266 264 262 260 260 259 259 260 262 261 259 260 261 261 261 260 257 255 255 255 254 254 254 255 255 253 252 254 254 254 254 250 244 240 236 232 229 229 228 226 226 224 218 216 221 223 224 223 219 217 217 218 220 223 224 225 225 225 229 232 234 236 239 240 238 236 233 220 204 204 210 212 218 227 231 239 252 251 240 243 253 252
270 270 270 269 268 267 266 264 262 260 258 258 259 259 259 258 258 258 259 260 260 258 255 253 252 251 250 250 251 252 253 252 250 250 251 253 253 252 245 240 238 234 228 227 227 225 225 226 221 217 220 223 224 224 222 219 218 219 221 224 223 223 224 223 225 229 232 235 239 241 240 237 236 231 220 217 222 222 223 229 235 240 249 252 244 245 255 260
268 269 269 268 267 266 265 264 262 259 258 258 259 258 257 256 256 256 257 258 258 256 253 251 249 248 247 248 248 248 250 250 249 247 248 250 252 250 244 239 239 236 228 225 226 226 225 225 223 218 219 222 223 224 223 221 219 219 220 222 223 223 226 227 227 229 232 235 239 242 243 239 234 233 232 229 231 231 225 227 236 238 241 247 249 251 253 252
265 266 267 266 265 264 263 262 261 259 258 258 258 256 254 252 252 253 254 254 255 254 252 249 247 245 245 245 245 244 246 248 248 247 247 248 250 248 242 238 238 236 230 225 225 225 225 225 224 220 218 220 222 223 223 223 222 221 220 222 222 222 225 227 229 230 232 236 239 242 245 244 237 234 235 234 238 240 233 237 244 237 234 240 249 258 256 248
262 264 265 265 264 263 261 260 260 259 258 257 255 253 251 249 249 250 252 252 253 252 251 248 245 244 243 242 242 241 242 245 247 247 246 245 245 244 239 237 236 234 231 228 225 224 224 225 225 223 221 221 221 222 224 225 226 225 224 224 224 225 225 227 229 230 231 234 238 241 245 246 242 236 234 237 244 247 246 254 255 242 238 242 246 254 258 254
261 263 264 263 263 263 260 259 258 257 257 256 253 250 248 247 246 247 249 250 251 250 249 247 245 243 242 240 239 238 240 242 244 246 246 244 241 238 235 234 232 231 232 231 229 225 224 225 225 224 223 222 222 223 225 226 227 228 228 228 227 227 228 228 230 232 232 234 236 239 244 246 244 237 232 234 242 248 251 255 257 252 251 253 254 258 261 257
261 262 263 262 262 263 261 258 256 255 256 255 252 248 246 245 244 245 247 248 249 249 248 247 245 243 241 238 235 235 237 239 240 243 245 243 239 234 231 231 232 232 233 233 232 228 224 225 225 224 224 222 222 224 225 226 227 227 228 228 227 227 228 230 232 235 236 236 237 239 242 245 245 242 238 236 238 242 247 253 254 254 257 259 260 263 264 259
262 263 263 262 262 262 261 259 257 255 254 253 252 249 246 245 244 244 246 247 248 248 247 245 244 242 239 235 233 233 235 237 237 238 240 240 238 234 230 230 232 233 233 233 232 230 227 227 227 225 223 221 220 223 224 224 225 226 226 226 226 226 227 228 231 234 236 238 239 240 243 245 246 246 245 245 245 243 247 253 253 252 257 260 258 258 259 257
262 262 263 262 262 262 261 259 258 256 253 251 250 248 245 243 242 243 245 245 245 245 245 244 242 240 237 234 232 231 232 234 233 233 235 236 236 233 231 230 231 232 234 232 231 230 230 229 228 227 226 223 221 222 224 224 225 226 226 225 226 226 225 226 228 230 233 237 238 239 242 243 245 246 244 246 251 254 256 259 260 257 255 254 254 254 256 257
260 259 260 260 260 259 258 257 255 254 252 249 247 245 244 242 240 241 242 243 243 243 242 241 239 238 236 233 231 230 230 232 232 230 232 235 233 230 230 230 230 231 233 233 231 231 231 231 230 230 230 230 227 224 225 227 228 228 228 226 226 226 225 224 226 228 231 235 237 238 240 242 243 244 243 244 248 252 253 256 260 258 251 250 253 252 250 250
257 255 255 254 255 255 254 253 251 248 247 245 243 241 241 240 239 239 240 241 241 240 240 238 237 236 234 231 229 228 227 228 229 227 226 229 230 229 229 229 229 231 233 234 234 233 234 234 234 233 233 233 231 226 224 226 230 230 230 229 229 229 227 225 225 228 230 233 236 237 239 241 241 241 242 244 247 248 248 251 255 256 252 252 253 248 243 242
255 253 251 249 248 249 249 249 247 243 241 240 238 237 237 237 237 237 238 239 238 238 237 236 235 233 232 230 227 226 225 225 227 224 221 222 225 226 228 229 229 229 232 235 236 236 237 238 237 236 236 235 232 227 223 223 226 229 229 229 229 230 230 228 227 229 231 233 236 237 239 240 241 241 241 243 245 245 247 250 252 253 250 246 244 240 237 237
255 252 250 248 245 244 244 244 243 240 237 236 234 234 234 235 235 235 236 237 236 235 235 234 232 230 230 229 227 226 224 224 225 224 220 220 221 223 226 227 226 227 230 235 238 238 238 239 237 236 237 236 232 226 221 220 220 223 225 226 226 227 229 230 229 229 232 234 236 238 240 241 241 240 241 242 243 244 246 248 250 251 245 239 236 233 230 233
256 253 251 249 246 243 241 241 241 239 236 234 232 232 232 233 233 233 233 234 233 232 231 230 229 228 227 228 227 225 223 223 223 222 220 219 219 220 222 223 224 225 227 233 238 239 239 239 237 236 236 234 228 219 216 216 215 217 221 223 224 225 226 228 229 228 230 233 235 237 239 240 238 238 239 240 242 244 246 247 248 247 239 235 236 234 231 233
257 256 253 250 247 245 242 240 239 237 236 235 232 230 231 231 231 231 231 232 230 229 228 227 226 226 225 225 226 225 223 222 222 220 218 218 218 218 219 220 222 224 225 230 236 238 238 236 234 233 233 230 221 212 210 212 212 213 215 218 221 223 223 225 226 225 226 230 233 235 237 237 236 236 237 239 240 242 244 243 240 238 233 230 231 231 231 230
257 256 255 251 247 245 244 243 240 238 237 236 234 231 230 230 229 229 229 229 227 226 226 225 224 224 223 223 224 224 223 222 221 219 218 218 217 217 218 220 222 223 224 229 235 235 234 233 231 230 230 226 216 208 209 214 215 214 212 212 217 221 223 224 224 224 224 226 229 232 235 236 234 233 235 237 239 241 240 233 228 228 229 227 225 226 229 231